[[{"header":{"parameterUnit":"m.s-1","parameterCategory":1,"la1":30.2991,"la2":30.254,"lo1":-89.0895,"lo2":-89.0444,"dy":0.0017,"dx":0.0017,"nx":28,"ny":28,"refTime":"2025-01-23T09:00:00:Z","depth":0,"parameterNumber":2,"parameterNumberName":"U-component_of_WINDS"},"data":[0,0,0,0,0,0,0,0,0,0,0,0,0,0,0,0,0,0,0,0,0,0,0,0,0,0,0,0,0,0,0,0,0,0,0,0,0,0,0,0,0,0,0,0,0,0,0,0,0,0,0,0,0,0,0,0,0,0,4.1418,4.1419,0,4.1521,4.1522,4.1524,4.1514,4.1512,4.151,4.1509,4.1615,4.1619,4.1623,0,0,0,0,0,0,0,0,0,0,0,0,0,4.1215,4.1218,4.1418,4.142,4.1421,4.1521,4.1523,4.1524,4.1514,4.1512,4.151,4.1508,4.1614,4.1619,4.1624,0,0,0,0,0,0,0,0,0,0,0,0,0,4.1309,4.122,4.1418,4.1428,4.143,4.1521,4.1523,4.1524,4.1514,4.1512,4.1509,4.1507,4.1612,4.1618,4.1625,4.1713,0,0,4.1644,4.1647,0,0,0,0,0,0,0,0,4.1304,4.1316,4.1425,4.1427,4.143,4.1502,4.149,4.1587,4.1515,4.1482,4.1509,4.1506,4.1579,4.1588,4.1613,4.1718,4.1722,4.1645,4.1649,4.1652,4.1653,0,0,0,0,0,0,0,4.1297,4.1312,4.1459,4.1427,4.143,4.1428,4.1438,4.1508,4.1543,4.1485,4.1484,4.1497,4.158,4.1607,4.1615,4.1724,4.1645,4.165,4.1654,4.1657,4.1908,4.191,0,0,0,0,0,0,4.1288,4.1306,4.1456,4.1462,4.1359,4.1433,4.1445,4.1481,4.1542,4.1549,4.1499,4.1496,4.1597,4.1608,4.1619,4.1727,4.1652,4.1658,4.1661,4.1905,4.1908,4.1911,0,0,0,0,0,0,4.1284,4.1301,4.1452,4.1384,4.1403,4.1439,4.148,4.1485,4.1511,4.1553,4.1559,4.1519,4.1595,4.161,4.169,4.1731,4.1661,4.1666,4.1902,4.1906,4.191,4.1944,0,0,0,0,0,0,4.1278,4.13,4.1333,4.1385,4.1407,4.152,4.1482,4.1488,4.1522,4.152,4.1574,4.158,4.1595,4.168,4.1696,4.1739,4.1671,4.1898,4.1904,4.1909,4.1939,4.1949,4.1957,0,0,0,0,0,4.1271,4.1338,4.1335,4.1353,4.1449,4.1522,4.1535,4.155,4.1526,4.156,4.1587,4.1579,4.1724,4.1689,4.1706,4.1751,4.1896,4.1902,4.1908,4.1935,4.1947,4.1957,0,0,0,0,0,0,4.129,4.1345,4.1342,4.1428,4.1471,4.1521,4.1564,4.1561,4.1612,4.1607,4.1624,4.1636,4.1717,4.1742,4.1702,4.1841,4.1807,4.1817,4.1821,4.1833,4.1841,4.1833,4.1677,0,0,0,0,0,4.1304,4.1359,4.1404,4.1476,4.1498,4.1527,4.156,4.1568,4.1612,4.163,4.1663,4.1707,4.1763,4.1799,4.1852,4.1943,4.1956,4.1983,4.1992,4.1999,4.2007,4.2059,4.2072,4.1932,4.1932,4.1932,0,0,4.1334,4.1371,4.1405,4.1481,4.1515,4.1572,4.1542,4.1603,4.1646,4.164,4.1717,4.1743,4.1793,4.188,4.1919,4.1903,4.2049,4.2007,4.2012,4.2017,4.2067,4.208,4.2092,4.1936,4.1935,4.1935,0,0,4.1419,4.1452,4.1516,4.1551,4.1602,4.1622,4.1638,4.1688,4.1705,4.1783,4.178,4.1832,4.1927,4.1963,4.1994,4.2095,4.2089,4.2112,4.2157,4.2207,4.2218,4.2228,4.2265,4.2278,4.212,4.212,4.212,0,4.1449,4.1534,4.1549,4.1611,4.1646,4.1643,4.1709,4.1742,4.1809,4.1833,4.1814,4.1935,4.1968,4.2064,4.2088,4.2113,4.2132,4.2105,4.2216,4.2226,4.2235,4.227,4.2284,4.2122,4.2122,4.2122,4.2122,0,4.1571,4.163,4.1676,4.1741,4.178,4.1844,4.1869,4.1907,4.1913,4.1934,4.2015,4.2056,4.2118,4.2141,4.2146,4.2238,4.2227,4.2212,4.2178,4.2251,4.2284,4.2298,4.2126,4.2125,4.2124,4.2124,0,0,4.1669,4.1742,4.1759,4.1789,4.1847,4.1893,4.1958,4.2019,4.2052,4.2098,4.2153,4.2235,4.2222,4.2257,4.2267,4.2311,4.2389,4.2291,4.2292,4.2308,4.2494,4.2505,4.2521,4.2386,4.2389,4.2391,4.249,0,4.1759,4.1873,4.1889,4.1989,4.2045,4.2044,4.21,4.2143,4.2165,4.2216,4.2241,4.2299,4.2277,4.2299,4.2342,4.237,4.2427,4.2363,4.2438,4.2441,4.2426,4.2538,4.255,4.2641,4.2503,4.2505,4.2507,0,4.188,4.193,4.2036,4.2088,4.2112,4.2162,4.222,4.2269,4.2317,4.2331,4.2371,4.2376,4.2444,4.2407,4.2501,4.2458,4.249,4.2508,4.2512,4.252,4.2478,4.2549,4.2671,4.2685,4.2528,4.2526,4.2524,0,4.1942,4.2036,4.2113,4.2138,4.22,4.2236,4.2263,4.2309,4.2345,4.2397,4.2421,4.2479,4.2511,4.2557,4.2577,4.2549,4.2671,4.2636,4.2685,4.2685,4.2711,4.2709,4.2839,4.273,4.273,4.273,4.273,0,4.2042,4.2107,4.2142,4.2188,4.2262,4.228,4.2353,4.2379,4.2421,4.2473,4.2476,4.2526,4.255,4.2604,4.262,4.2697,4.2711,4.2724,4.2728,4.2725,4.2723,4.2746,4.274,4.2734,4.2733,4.2732,4.2731,0,4.2124,4.2149,4.2232,4.2285,4.2299,4.2351,4.2396,4.2443,4.2465,4.2532,4.2549,4.2585,4.2648,4.2673,4.2751,4.2762,4.285,4.2849,4.2834,4.2835,4.2883,4.2879,4.3034,4.3055,4.2931,4.2933,4.2933,0,4.2186,4.2236,4.2294,4.2329,4.2358,4.2415,4.2453,4.2473,4.2512,4.2572,4.2611,4.2674,4.2726,4.2828,4.2861,4.2921,4.2921,4.2971,4.293,4.2925,4.2923,4.292,4.2926,4.2979,4.298,4.2981,4.2982,0,4.2294,4.2304,4.2357,4.2416,4.2461,4.2508,4.2554,4.2583,4.2611,4.2655,4.2719,4.276,4.2839,4.2903,4.2965,4.2994,4.2993,4.2995,4.301,4.3006,4.2996,4.3003,4.2855,4.2991,4.299,4.299,4.2989,4.2989,4.2368,4.2413,4.2462,4.2522,4.2558,4.2602,4.2648,4.2677,4.2731,4.2798,4.2807,4.2877,4.2925,4.3008,4.304,4.3096,4.3083,4.3104,4.311,4.3115,4.3118,4.2987,4.3107,4.3107,4.3107,4.3107,4.3107,0,4.2477,4.2508,4.2563,4.2628,4.2675,4.2671,4.2722,4.2762,4.2823,4.2869,4.292,4.2995,4.3057,4.3096,4.3159,4.3196,4.3197,4.3212,4.3209,4.3216,4.3126,4.3107,4.321,4.321,4.3209,4.3209,4.3209,4.3209,4.2539,4.2616,4.2632,4.2728,4.2759,4.2827,4.2857,4.2898,4.2934,4.3018,4.307,4.3094,4.3138,4.3204,4.3261,4.3271,4.3294,4.3309,4.3319,4.3233,4.3223,4.3212,4.3195,4.3314,4.3314,4.3405,4.3405,4.3406]},{"header":{"parameterUnit":"m.s-1","parameterCategory":1,"la1":30.2991,"la2":30.254,"lo1":-89.0895,"lo2":-89.0444,"dy":0.0017,"dx":0.0017,"nx":28,"ny":28,"refTime":"2025-01-23T09:00:00:Z","depth":0,"parameterNumber":3,"parameterNumberName":"V-component_of_WINDS"},"data":[0,0,0,0,0,0,0,0,0,0,0,0,0,0,0,0,0,0,0,0,0,0,0,0,0,0,0,0,0,0,0,0,0,0,0,0,0,0,0,0,0,0,0,0,0,0,0,0,0,0,0,0,0,0,0,0,0,0,-4.0307,-4.0307,0,-4.031,-4.031,-4.031,-4.0286,-4.0285,-4.0285,-4.0284,-4.0286,-4.0287,-4.0288,0,0,0,0,0,0,0,0,0,0,0,0,0,-4.0279,-4.028,-4.0307,-4.0307,-4.0307,-4.031,-4.031,-4.031,-4.0286,-4.0285,-4.0285,-4.0284,-4.0286,-4.0287,-4.0288,0,0,0,0,0,0,0,0,0,0,0,0,0,-4.0288,-4.028,-4.0307,-4.0295,-4.0294,-4.031,-4.031,-4.031,-4.0286,-4.0285,-4.0284,-4.0283,-4.0286,-4.0287,-4.0288,-4.0315,0,0,-4.0291,-4.0292,0,0,0,0,0,0,0,0,-4.0287,-4.0289,-4.0297,-4.0296,-4.0295,-4.0297,-4.0301,-4.0312,-4.0287,-4.0289,-4.0284,-4.0283,-4.0291,-4.0291,-4.0294,-4.0315,-4.0315,-4.0291,-4.0292,-4.0292,-4.0293,0,0,0,0,0,0,0,-4.0287,-4.0288,-4.0308,-4.0297,-4.0296,-4.029,-4.029,-4.0303,-4.0296,-4.0289,-4.0287,-4.0288,-4.029,-4.0293,-4.0294,-4.0315,-4.0291,-4.0292,-4.0293,-4.0293,-4.0359,-4.036,0,0,0,0,0,0,-4.0288,-4.0288,-4.0308,-4.0308,-4.0289,-4.0291,-4.0291,-4.0297,-4.0295,-4.0294,-4.0289,-4.0287,-4.0292,-4.0293,-4.0294,-4.0325,-4.0292,-4.0293,-4.0294,-4.0358,-4.0359,-4.036,0,0,0,0,0,0,-4.0287,-4.029,-4.0308,-4.0298,-4.03,-4.0293,-4.03,-4.0298,-4.0301,-4.0295,-4.0294,-4.0294,-4.0291,-4.0292,-4.031,-4.0325,-4.0294,-4.0295,-4.0356,-4.0358,-4.036,-4.0388,0,0,0,0,0,0,-4.0287,-4.029,-4.03,-4.0298,-4.03,-4.0324,-4.0301,-4.0299,-4.0303,-4.03,-4.0299,-4.0298,-4.029,-4.0309,-4.0311,-4.0326,-4.0296,-4.0355,-4.0357,-4.0359,-4.0386,-4.0391,-4.0395,0,0,0,0,0,-4.0286,-4.0307,-4.03,-4.0303,-4.0313,-4.0325,-4.0326,-4.0317,-4.0304,-4.0314,-4.0311,-4.0298,-4.0323,-4.0311,-4.0313,-4.0329,-4.0354,-4.0357,-4.0359,-4.0384,-4.039,-4.0395,0,0,0,0,0,0,-4.031,-4.0307,-4.0299,-4.0321,-4.0324,-4.0321,-4.0333,-4.0323,-4.0329,-4.0327,-4.0315,-4.0315,-4.0334,-4.0333,-4.0319,-4.0355,-4.0336,-4.034,-4.0355,-4.036,-4.0365,-4.0364,-4.0296,0,0,0,0,0,-4.0318,-4.0329,-4.0325,-4.0345,-4.0347,-4.034,-4.0345,-4.0338,-4.034,-4.0341,-4.0338,-4.0341,-4.0349,-4.0355,-4.0362,-4.0386,-4.0386,-4.0398,-4.0403,-4.0406,-4.0409,-4.0422,-4.0428,-4.0369,-4.0369,-4.0368,0,0,-4.0335,-4.0334,-4.0341,-4.035,-4.0351,-4.0362,-4.0341,-4.0353,-4.0361,-4.0342,-4.0359,-4.0358,-4.0359,-4.038,-4.039,-4.038,-4.0425,-4.041,-4.0413,-4.0413,-4.0425,-4.0431,-4.0436,-4.037,-4.037,-4.037,0,0,-4.037,-4.0371,-4.0388,-4.039,-4.0392,-4.0388,-4.0392,-4.0391,-4.039,-4.0406,-4.0392,-4.0402,-4.0416,-4.0418,-4.0421,-4.0459,-4.0448,-4.0462,-4.0485,-4.0498,-4.0502,-4.0506,-4.052,-4.0525,-4.0465,-4.0465,-4.0465,0,-4.039,-4.0406,-4.0397,-4.0411,-4.0415,-4.04,-4.0417,-4.0419,-4.0423,-4.0426,-4.0416,-4.0435,-4.0435,-4.0456,-4.0466,-4.0469,-4.0473,-4.0462,-4.0503,-4.0507,-4.051,-4.0523,-4.0528,-4.0467,-4.0466,-4.0466,-4.0466,0,-4.0431,-4.0443,-4.0456,-4.0461,-4.0467,-4.0482,-4.0476,-4.0483,-4.0476,-4.0472,-4.049,-4.0489,-4.0497,-4.0502,-4.0494,-4.0522,-4.0516,-4.0505,-4.0486,-4.0518,-4.0529,-4.0534,-4.0469,-4.0468,-4.0468,-4.0468,0,0,-4.048,-4.0482,-4.0487,-4.0489,-4.0492,-4.05,-4.0515,-4.0523,-4.0529,-4.0533,-4.0545,-4.0559,-4.0548,-4.0551,-4.0545,-4.0556,-4.0586,-4.0543,-4.0543,-4.055,-4.0617,-4.0625,-4.0631,-4.0579,-4.058,-4.0581,-4.0617,0,-4.0515,-4.054,-4.0533,-4.0559,-4.0569,-4.0556,-4.0569,-4.0571,-4.0569,-4.0578,-4.0575,-4.0585,-4.057,-4.0572,-4.0583,-4.058,-4.0599,-4.0578,-4.059,-4.059,-4.0589,-4.0637,-4.0646,-4.068,-4.0621,-4.0622,-4.0623,0,-4.0558,-4.0565,-4.0591,-4.0593,-4.0597,-4.0609,-4.0616,-4.0624,-4.0627,-4.0625,-4.063,-4.0621,-4.0635,-4.0617,-4.0637,-4.0623,-4.0627,-4.0627,-4.0628,-4.0628,-4.0608,-4.0638,-4.069,-4.0695,-4.063,-4.0629,-4.0629,0,-4.0591,-4.0607,-4.0625,-4.0628,-4.063,-4.0638,-4.064,-4.0642,-4.0647,-4.0653,-4.0657,-4.0665,-4.0669,-4.0675,-4.0668,-4.0656,-4.0689,-4.067,-4.0687,-4.0687,-4.0694,-4.0693,-4.0747,-4.0698,-4.0698,-4.0698,-4.0698,0,-4.063,-4.0647,-4.064,-4.0651,-4.067,-4.0662,-4.068,-4.068,-4.0682,-4.0693,-4.0682,-4.0692,-4.0683,-4.0692,-4.0687,-4.0705,-4.0707,-4.0705,-4.0703,-4.0705,-4.0706,-4.0708,-4.0705,-4.0699,-4.0699,-4.0699,-4.0699,0,-4.0669,-4.0666,-4.0685,-4.0686,-4.0686,-4.07,-4.0701,-4.0711,-4.0708,-4.0722,-4.0725,-4.0721,-4.0731,-4.0726,-4.0737,-4.0733,-4.0756,-4.0751,-4.0755,-4.0753,-4.077,-4.0769,-4.0827,-4.0834,-4.0781,-4.0781,-4.0782,0,-4.0694,-4.0707,-4.071,-4.0716,-4.0719,-4.0729,-4.0735,-4.0728,-4.0735,-4.074,-4.075,-4.076,-4.0767,-4.0785,-4.0783,-4.0791,-4.0786,-4.0806,-4.0787,-4.0789,-4.0786,-4.0785,-4.0786,-4.0809,-4.081,-4.081,-4.0811,0,-4.0738,-4.0736,-4.0745,-4.0754,-4.0762,-4.0768,-4.0773,-4.0779,-4.0773,-4.0781,-4.0792,-4.0798,-4.081,-4.0819,-4.0827,-4.0828,-4.0818,-4.0817,-4.0821,-4.0823,-4.0825,-4.0824,-4.0764,-4.0815,-4.0815,-4.0815,-4.0814,-4.0814,-4.077,-4.0781,-4.0785,-4.0796,-4.08,-4.0806,-4.0816,-4.0815,-4.0824,-4.0834,-4.0829,-4.0842,-4.0846,-4.0855,-4.0857,-4.0867,-4.0859,-4.0865,-4.0867,-4.0868,-4.087,-4.0824,-4.0868,-4.0868,-4.0868,-4.0868,-4.0868,0,-4.0813,-4.0816,-4.0826,-4.0835,-4.0843,-4.0835,-4.0841,-4.0848,-4.086,-4.0864,-4.0872,-4.0886,-4.0895,-4.0895,-4.0904,-4.0912,-4.0908,-4.0914,-4.0913,-4.0913,-4.0877,-4.0872,-4.0917,-4.0917,-4.0917,-4.0917,-4.0917,-4.0917,-4.0837,-4.0855,-4.0854,-4.0874,-4.0876,-4.0889,-4.0893,-4.0898,-4.0902,-4.0917,-4.0926,-4.0926,-4.0928,-4.0937,-4.0946,-4.0945,-4.0949,-4.0957,-4.0955,-4.0921,-4.0916,-4.0911,-4.0907,-4.0958,-4.0958,-4.099,-4.0991,-4.0991]}]]